StationID,Date,MaxTemp,MinTemp,Precipitation,Snowfall,SnowDepth
"US1MECM0018","2009-08-01",,,175.00,0.00,0.00
"US1MECM0018","2009-08-02",,,0.00,0.00,
"US1MECM0018","2009-08-03",,,5.00,0.00,0.00
"US1MECM0018","2009-08-04",,,0.00,0.00,
"US1MECM0018","2009-08-05",,,0.00,0.00,
"US1MECM0018","2009-08-06",,,0.00,0.00,
"US1MECM0018","2009-08-07",,,0.00,0.00,
"US1MECM0018","2009-08-08",,,0.00,0.00,
"US1MECM0018","2009-08-09",,,0.00,0.00,
"US1MECM0018","2009-08-10",,,0.00,0.00,
"US1MECM0018","2009-08-11",,,8.00,0.00,0.00
"US1MECM0018","2009-08-12",,,28.00,0.00,0.00
"US1MECM0018","2009-08-13",,,0.00,0.00,
"US1MECM0018","2009-08-14",,,0.00,0.00,
"US1MECM0018","2009-08-15",,,0.00,0.00,
"US1MECM0018","2009-08-16",,,0.00,0.00,
"US1MECM0018","2009-08-17",,,0.00,0.00,
"US1MECM0018","2009-08-18",,,0.00,0.00,0.00
"US1MECM0018","2009-08-19",,,0.00,0.00,0.00
"US1MECM0018","2009-08-20",,,0.00,0.00,
"US1MECM0018","2009-08-21",,,0.00,0.00,
"US1MECM0018","2009-08-22",,,23.00,0.00,0.00
"US1MECM0018","2009-08-23",,,13.00,0.00,0.00
"US1MECM0018","2009-08-24",,,345.00,0.00,0.00
"US1MECM0018","2009-08-25",,,23.00,0.00,0.00
"US1MECM0018","2009-08-26",,,0.00,0.00,
"US1MECM0018","2009-08-27",,,0.00,0.00,
"US1MECM0018","2009-08-28",,,0.00,0.00,
"US1MECM0018","2009-08-29",,,183.00,0.00,0.00
"US1MECM0018","2009-08-30",,,267.00,0.00,0.00
"US1MECM0018","2009-08-31",,,13.00,0.00,0.00
"US1MECM0018","2009-09-01",,,0.00,0.00,
"US1MECM0018","2009-09-02",,,0.00,0.00,
"US1MECM0018","2009-09-03",,,0.00,0.00,
"US1MECM0018","2009-09-04",,,0.00,0.00,
"US1MECM0018","2009-09-05",,,0.00,0.00,
"US1MECM0018","2009-09-06",,,0.00,0.00,0.00
"US1MECM0018","2009-09-07",,,0.00,0.00,0.00
"US1MECM0018","2009-09-08",,,0.00,0.00,
"US1MECM0018","2009-09-09",,,0.00,0.00,
"US1MECM0018","2009-09-10",,,0.00,0.00,
"US1MECM0018","2009-09-11",,,0.00,0.00,0.00
"US1MECM0018","2009-09-12",,,0.00,0.00,
"US1MECM0018","2009-09-13",,,8.00,0.00,0.00
"US1MECM0018","2009-09-14",,,0.00,0.00,0.00
"US1MECM0018","2009-09-15",,,10.00,0.00,0.00
"US1MECM0018","2009-09-16",,,0.00,0.00,
"US1MECM0018","2009-09-17",,,0.00,0.00,
"US1MECM0018","2009-09-18",,,0.00,0.00,
"US1MECM0018","2009-09-19",,,0.00,0.00,0.00
"US1MECM0018","2009-09-20",,,0.00,0.00,0.00
"US1MECM0018","2009-09-21",,,0.00,0.00,0.00
"US1MECM0018","2009-09-22",,,0.00,0.00,
"US1MECM0018","2009-09-23",,,0.00,0.00,
"US1MECM0018","2009-09-24",,,5.00,0.00,0.00
"US1MECM0018","2009-09-25",,,0.00,0.00,
"US1MECM0018","2009-09-26",,,0.00,0.00,0.00
"US1MECM0018","2009-09-27",,,13.00,0.00,0.00
"US1MECM0018","2009-09-28",,,236.00,0.00,0.00
"US1MECM0018","2009-09-29",,,104.00,0.00,0.00
"US1MECM0018","2009-09-30",,,3.00,0.00,0.00
"US1MECM0018","2009-10-01",,,0.00,0.00,0.00
"US1MECM0018","2009-10-02",,,0.00,0.00,0.00
"US1MECM0018","2009-10-03",,,0.00,0.00,0.00
"US1MECM0018","2009-10-04",,,589.00,0.00,0.00
"US1MECM0018","2009-10-05",,,0.00,0.00,0.00
"US1MECM0018","2009-10-06",,,46.00,0.00,0.00
"US1MECM0018","2009-10-07",,,74.00,0.00,0.00
"US1MECM0018","2009-10-08",,,155.00,0.00,0.00
"US1MECM0018","2009-10-09",,,0.00,0.00,
"US1MECM0018","2009-10-10",,,48.00,0.00,0.00
"US1MECM0018","2009-10-11",,,0.00,0.00,
"US1MECM0018","2009-10-12",,,0.00,0.00,0.00
"US1MECM0018","2009-10-13",,,46.00,0.00,0.00
"US1MECM0018","2009-10-14",,,33.00,0.00,0.00
"US1MECM0018","2009-10-15",,,0.00,0.00,
"US1MECM0018","2009-10-16",,,0.00,0.00,
"US1MECM0018","2009-10-17",,,0.00,0.00,
"US1MECM0018","2009-10-18",,,0.00,0.00,
"US1MECM0018","2009-10-19",,,150.00,0.00,0.00
"US1MECM0018","2009-10-20",,,0.00,0.00,
"US1MECM0018","2009-10-21",,,0.00,0.00,
"US1MECM0018","2009-10-22",,,8.00,0.00,0.00
"US1MECM0018","2009-10-23",,,0.00,0.00,0.00
"US1MECM0018","2009-10-24",,,43.00,0.00,0.00
"US1MECM0018","2009-10-25",,,323.00,0.00,0.00
"US1MECM0018","2009-10-26",,,0.00,0.00,0.00
"US1MECM0018","2009-10-27",,,0.00,0.00,0.00
"US1MECM0018","2009-10-28",,,0.00,0.00,0.00
"US1MECM0018","2009-10-29",,,13.00,0.00,0.00
"US1MECM0018","2009-10-30",,,0.00,0.00,
"US1MECM0018","2009-10-31",,,5.00,0.00,0.00
"US1MECM0018","2009-11-01",,,15.00,0.00,0.00
"US1MECM0018","2009-11-02",,,0.00,0.00,0.00
"US1MECM0018","2009-11-03",,,0.00,0.00,0.00
"US1MECM0018","2009-11-04",,,0.00,0.00,0.00
"US1MECM0018","2009-11-05",,,23.00,10.00,10.00
"US1MECM0018","2009-11-06",,,0.00,0.00,0.00
"US1MECM0018","2009-11-07",,,0.00,0.00,
"US1MECM0018","2009-11-08",,,0.00,0.00,
"US1MECM0018","2009-11-09",,,0.00,0.00,
"US1MECM0018","2009-11-10",,,0.00,0.00,
"US1MECM0018","2009-11-11",,,0.00,0.00,
"US1MECM0018","2009-11-12",,,0.00,0.00,0.00
"US1MECM0018","2009-11-13",,,0.00,0.00,
"US1MECM0018","2009-11-14",,,0.00,0.00,0.00
"US1MECM0018","2009-11-15",,,1255.00,0.00,0.00
"US1MECM0018","2009-11-16",,,0.00,0.00,
"US1MECM0018","2009-11-17",,,0.00,0.00,
"US1MECM0018","2009-11-18",,,0.00,0.00,0.00
"US1MECM0018","2009-11-19",,,0.00,0.00,
"US1MECM0018","2009-11-20",,,3.00,0.00,0.00
"US1MECM0018","2009-11-21",,,124.00,0.00,0.00
"US1MECM0018","2009-11-22",,,0.00,0.00,
"US1MECM0018","2009-11-23",,,0.00,0.00,
"US1MECM0018","2009-11-24",,,0.00,0.00,0.00
"US1MECM0018","2009-11-25",,,3.00,0.00,0.00
"US1MECM0018","2009-11-26",,,20.00,0.00,0.00
"US1MECM0018","2009-11-27",,,5.00,0.00,0.00
"US1MECM0018","2009-11-28",,,488.00,0.00,0.00
"US1MECM0018","2009-11-29",,,0.00,0.00,0.00
"US1MECM0018","2009-11-30",,,0.00,0.00,0.00
"US1MECM0018","2009-12-01",,,38.00,0.00,0.00
"US1MECM0018","2009-12-02",,,0.00,0.00,0.00
"US1MECM0018","2009-12-03",,,274.00,0.00,0.00
"US1MECM0018","2009-12-04",,,25.00,0.00,0.00
"US1MECM0018","2009-12-05",,,0.00,0.00,0.00
"US1MECM0018","2009-12-06",,,79.00,127.00,127.00
"US1MECM0018","2009-12-07",,,0.00,0.00,
"US1MECM0018","2009-12-08",,,0.00,0.00,
"US1MECM0018","2009-12-09",,,0.00,0.00,
"US1MECM0018","2009-12-10",,,559.00,127.00,
"US1MECM0018","2009-12-11",,,0.00,0.00,
"US1MECM0018","2009-12-12",,,0.00,0.00,
"US1MECM0018","2009-12-13",,,0.00,0.00,
"US1MECM0018","2009-12-14",,,185.00,3.00,
"US1MECM0018","2009-12-15",,,0.00,0.00,
"US1MECM0018","2009-12-16",,,0.00,0.00,
"US1MECM0018","2009-12-17",,,0.00,0.00,
"US1MECM0018","2009-12-18",,,0.00,0.00,
"US1MECM0018","2009-12-19",,,0.00,0.00,
"US1MECM0018","2009-12-20",,,0.00,0.00,
"US1MECM0018","2009-12-21",,,0.00,0.00,
"US1MECM0018","2009-12-22",,,0.00,0.00,
"US1MECM0018","2009-12-23",,,0.00,0.00,
"US1MECM0018","2009-12-24",,,0.00,0.00,
"US1MECM0018","2009-12-25",,,0.00,0.00,
"US1MECM0018","2009-12-26",,,0.00,0.00,
"US1MECM0018","2009-12-27",,,127.00,8.00,
"US1MECM0018","2009-12-28",,,282.00,0.00,0.00
"US1MECM0018","2009-12-29",,,64.00,25.00,25.00
"US1MECM0018","2009-12-30",,,0.00,0.00,25.00
"US1MECM0018","2009-12-31",,,0.00,0.00,25.00
"US1MECM0018","2010-01-01",,,38.00,56.00,76.00
"US1MECM0018","2010-01-02",,,28.00,33.00,102.00
"US1MECM0018","2010-01-03",,,84.00,102.00,203.00
"US1MECM0018","2010-01-04",,,20.00,43.00,229.00
"US1MECM0018","2010-01-05",,,0.00,0.00,203.00
"US1MECM0018","2010-01-06",,,0.00,0.00,178.00
"US1MECM0018","2010-01-07",,,3.00,3.00,178.00
"US1MECM0018","2010-01-08",,,0.00,0.00,178.00
"US1MECM0018","2010-01-09",,,3.00,3.00,178.00
"US1MECM0018","2010-01-10",,,0.00,0.00,178.00
"US1MECM0018","2010-01-11",,,0.00,0.00,178.00
"US1MECM0018","2010-01-12",,,0.00,0.00,152.00
"US1MECM0018","2010-01-13",,,0.00,0.00,152.00
"US1MECM0018","2010-01-14",,,0.00,0.00,127.00
"US1MECM0018","2010-01-15",,,0.00,0.00,127.00
"US1MECM0018","2010-01-16",,,0.00,0.00,102.00
"US1MECM0018","2010-01-17",,,0.00,0.00,76.00
"US1MECM0018","2010-01-18",,,168.00,203.00,254.00
"US1MECM0018","2010-01-19",,,53.00,76.00,330.00
"US1MECM0018","2010-01-20",,,97.00,99.00,432.00
"US1MECM0018","2010-01-21",,,0.00,0.00,406.00
"US1MECM0018","2010-01-22",,,0.00,0.00,406.00
"US1MECM0018","2010-01-23",,,0.00,0.00,406.00
"US1MECM0018","2010-01-24",,,0.00,0.00,381.00
"US1MECM0018","2010-01-25",,,66.00,0.00,356.00
"US1MECM0018","2010-01-26",,,272.00,0.00,25.00
"US1MECM0018","2010-01-27",,,0.00,0.00,25.00
"US1MECM0018","2010-01-28",,,0.00,0.00,25.00
"US1MECM0018","2010-01-29",,,10.00,8.00,25.00
"US1MECM0018","2010-01-30",,,0.00,0.00,25.00
"US1MECM0018","2010-01-31",,,0.00,0.00,25.00
"US1MECM0018","2010-02-01",,,0.00,0.00,25.00
"US1MECM0018","2010-02-02",,,0.00,0.00,25.00
"US1MECM0018","2010-02-03",,,0.00,0.00,25.00
"US1MECM0018","2010-02-04",,,3.00,8.00,25.00
"US1MECM0018","2010-02-05",,,0.00,0.00,25.00
"US1MECM0018","2010-02-06",,,0.00,0.00,25.00
"US1MECM0018","2010-02-07",,,0.00,0.00,25.00
"US1MECM0018","2010-02-08",,,0.00,0.00,25.00
"US1MECM0018","2010-02-09",,,0.00,0.00,25.00
"US1MECM0018","2010-02-10",,,0.00,0.00,0.00
"US1MECM0018","2010-02-11",,,0.00,0.00,0.00
"US1MECM0018","2010-02-12",,,0.00,0.00,0.00
"US1MECM0018","2010-02-13",,,0.00,0.00,0.00
"US1MECM0018","2010-02-14",,,0.00,0.00,0.00
"US1MECM0018","2010-02-15",,,0.00,0.00,0.00
"US1MECM0018","2010-02-16",,,0.00,0.00,0.00
"US1MECM0018","2010-02-17",,,10.00,13.00,25.00
"US1MECM0018","2010-02-18",,,0.00,0.00,0.00
"US1MECM0018","2010-02-19",,,0.00,0.00,0.00
"US1MECM0018","2010-02-20",,,0.00,0.00,0.00
"US1MECM0018","2010-02-21",,,0.00,0.00,0.00
"US1MECM0018","2010-02-22",,,0.00,0.00,0.00
"US1MECM0018","2010-02-23",,,0.00,0.00,0.00
"US1MECM0018","2010-02-24",,,0.00,0.00,0.00
"US1MECM0018","2010-02-25",,,663.00,0.00,0.00
"US1MECM0018","2010-02-26",,,909.00,0.00,0.00
"US1MECM0018","2010-02-27",,,38.00,20.00,25.00
"US1MECM0018","2010-02-28",,,61.00,38.00,51.00
"US1MECM0018","2010-03-01",,,114.00,0.00,0.00
"US1MECM0018","2010-03-02",,,0.00,0.00,0.00
"US1MECM0018","2010-03-03",,,0.00,0.00,0.00
"US1MECM0018","2010-03-04",,,0.00,0.00,0.00
"US1MECM0018","2010-03-05",,,0.00,0.00,0.00
"US1MECM0018","2010-03-06",,,0.00,0.00,0.00
"US1MECM0018","2010-03-07",,,0.00,0.00,0.00
"US1MECM0018","2010-03-08",,,0.00,0.00,0.00
"US1MECM0018","2010-03-09",,,0.00,0.00,0.00
"US1MECM0018","2010-03-10",,,0.00,0.00,0.00
"US1MECM0018","2010-03-11",,,0.00,0.00,0.00
"US1MECM0018","2010-03-12",,,0.00,0.00,0.00
"US1MECM0018","2010-03-13",,,0.00,0.00,0.00
"US1MECM0018","2010-03-14",,,107.00,0.00,0.00
"US1MECM0018","2010-03-15",,,701.00,0.00,0.00
"US1MECM0018","2010-03-16",,,33.00,0.00,0.00
"US1MECM0018","2010-03-17",,,0.00,0.00,0.00
"US1MECM0018","2010-03-18",,,0.00,0.00,0.00
"US1MECM0018","2010-03-19",,,0.00,0.00,0.00
"US1MECM0018","2010-03-20",,,0.00,0.00,0.00
"US1MECM0018","2010-03-21",,,0.00,0.00,0.00
"US1MECM0018","2010-03-22",,,0.00,0.00,0.00
"US1MECM0018","2010-03-23",,,216.00,0.00,0.00
"US1MECM0018","2010-03-24",,,483.00,0.00,0.00
"US1MECM0018","2010-03-25",,,43.00,0.00,0.00
"US1MECM0018","2010-03-26",,,66.00,0.00,0.00
"US1MECM0018","2010-03-27",,,0.00,0.00,0.00
"US1MECM0018","2010-03-31",,,1191.00,0.00,0.00
"US1MECM0018","2010-04-01",,,0.00,0.00,0.00
"US1MECM0018","2010-04-02",,,0.00,0.00,0.00
"US1MECM0018","2010-04-03",,,0.00,0.00,0.00
"US1MECM0018","2010-04-04",,,0.00,0.00,0.00
"US1MECM0018","2010-04-05",,,0.00,0.00,0.00
"US1MECM0018","2010-04-06",,,0.00,0.00,0.00
"US1MECM0018","2010-04-07",,,15.00,0.00,0.00
"US1MECM0018","2010-04-08",,,5.00,0.00,0.00
"US1MECM0018","2010-04-09",,,10.00,0.00,0.00
"US1MECM0018","2010-04-10",,,119.00,0.00,0.00
"US1MECM0018","2010-04-11",,,0.00,0.00,0.00
"US1MECM0018","2010-04-12",,,0.00,0.00,0.00
"US1MECM0018","2010-04-13",,,0.00,0.00,0.00
"US1MECM0018","2010-04-14",,,0.00,0.00,0.00
"US1MECM0018","2010-04-15",,,0.00,0.00,0.00
"US1MECM0018","2010-04-16",,,0.00,0.00,0.00
"US1MECM0018","2010-04-20",,,201.00,0.00,0.00
"US1MECM0018","2010-04-21",,,0.00,0.00,0.00
"US1MECM0018","2010-04-22",,,3.00,0.00,0.00
"US1MECM0018","2010-04-23",,,5.00,0.00,0.00
"US1MECM0018","2010-04-24",,,0.00,0.00,0.00
"US1MECM0018","2010-04-25",,,0.00,0.00,0.00
"US1MECM0018","2010-04-26",,,0.00,0.00,0.00
"US1MECM0018","2010-04-27",,,0.00,0.00,0.00
"US1MECM0018","2010-04-28",,,94.00,0.00,0.00
"US1MECM0018","2010-04-29",,,41.00,0.00,0.00
"US1MECM0018","2010-04-30",,,3.00,0.00,0.00
"US1MECM0018","2010-05-01",,,0.00,0.00,0.00
"US1MECM0018","2010-05-02",,,5.00,0.00,0.00
"US1MECM0018","2010-05-03",,,0.00,0.00,0.00
"US1MECM0018","2010-05-04",,,0.00,0.00,0.00
"US1MECM0018","2010-05-05",,,15.00,0.00,0.00
"US1MECM0018","2010-05-06",,,13.00,0.00,0.00
"US1MECM0018","2010-05-07",,,25.00,0.00,0.00
"US1MECM0018","2010-05-08",,,46.00,0.00,0.00
"US1MECM0018","2010-05-09",,,74.00,0.00,0.00
"US1MECM0018","2010-05-10",,,3.00,0.00,0.00
"US1MECM0018","2010-05-11",,,0.00,0.00,0.00
"US1MECM0018","2010-05-12",,,0.00,0.00,0.00
"US1MECM0018","2010-05-13",,,0.00,0.00,0.00
"US1MECM0018","2010-05-14",,,0.00,0.00,0.00
"US1MECM0018","2010-05-15",,,0.00,0.00,0.00
"US1MECM0018","2010-05-16",,,0.00,0.00,0.00
"US1MECM0018","2010-05-17",,,0.00,0.00,0.00
"US1MECM0018","2010-05-18",,,0.00,0.00,0.00
"US1MECM0018","2010-05-19",,,170.00,0.00,0.00
"US1MECM0018","2010-05-20",,,119.00,0.00,0.00
"US1MECM0018","2010-05-21",,,0.00,0.00,0.00
"US1MECM0018","2010-05-22",,,0.00,0.00,0.00
"US1MECM0018","2010-05-23",,,0.00,0.00,0.00
"US1MECM0018","2010-05-24",,,0.00,0.00,0.00
"US1MECM0018","2010-05-25",,,0.00,0.00,0.00
"US1MECM0018","2010-05-26",,,0.00,0.00,0.00
"US1MECM0018","2010-05-27",,,0.00,0.00,0.00
"US1MECM0018","2010-05-28",,,0.00,0.00,0.00
"US1MECM0018","2010-05-29",,,0.00,0.00,0.00
"US1MECM0018","2010-05-30",,,0.00,0.00,0.00
"US1MECM0018","2010-05-31",,,0.00,0.00,0.00
"US1MECM0018","2010-06-01",,,0.00,0.00,0.00
"US1MECM0018","2010-06-02",,,46.00,0.00,0.00
"US1MECM0018","2010-06-03",,,5.00,0.00,0.00
"US1MECM0018","2010-06-04",,,23.00,0.00,0.00
"US1MECM0018","2010-06-05",,,201.00,0.00,0.00
"US1MECM0018","2010-06-06",,,229.00,0.00,0.00
"US1MECM0018","2010-06-07",,,287.00,0.00,0.00
"US1MECM0018","2010-06-08",,,0.00,0.00,0.00
"US1MECM0018","2010-06-09",,,13.00,0.00,0.00
"US1MECM0018","2010-06-10",,,36.00,0.00,0.00
"US1MECM0018","2010-06-11",,,41.00,0.00,0.00
"US1MECM0018","2010-06-12",,,0.00,0.00,0.00
"US1MECM0018","2010-06-13",,,5.00,0.00,0.00
"US1MECM0018","2010-06-14",,,0.00,0.00,0.00
"US1MECM0018","2010-06-15",,,10.00,0.00,0.00
"US1MECM0018","2010-06-16",,,0.00,0.00,0.00
"US1MECM0018","2010-06-17",,,3.00,0.00,0.00
"US1MECM0018","2010-06-18",,,25.00,0.00,0.00
"US1MECM0018","2010-06-19",,,0.00,0.00,0.00
"US1MECM0018","2010-06-20",,,0.00,0.00,0.00
"US1MECM0018","2010-06-21",,,18.00,0.00,0.00
"US1MECM0018","2010-06-22",,,0.00,0.00,0.00
"US1MECM0018","2010-06-23",,,43.00,0.00,0.00
"US1MECM0018","2010-06-24",,,33.00,0.00,0.00
"US1MECM0018","2010-06-25",,,15.00,0.00,0.00
"US1MECM0018","2010-06-26",,,0.00,0.00,0.00
"US1MECM0018","2010-06-27",,,0.00,0.00,0.00
"US1MECM0018","2010-06-28",,,170.00,0.00,0.00
"US1MECM0018","2010-06-29",,,28.00,0.00,0.00
"US1MECM0018","2010-06-30",,,0.00,0.00,0.00
"US1MECM0018","2010-07-01",,,5.00,0.00,0.00
"US1MECM0018","2010-07-02",,,0.00,0.00,0.00
"US1MECM0018","2010-07-03",,,0.00,0.00,0.00
"US1MECM0018","2010-07-04",,,0.00,0.00,0.00
"US1MECM0018","2010-07-05",,,0.00,0.00,0.00
"US1MECM0018","2010-07-06",,,0.00,0.00,0.00
"US1MECM0018","2010-07-07",,,0.00,0.00,0.00
"US1MECM0018","2010-07-08",,,0.00,0.00,0.00
"US1MECM0018","2010-07-09",,,0.00,0.00,0.00
"US1MECM0018","2010-07-10",,,0.00,0.00,0.00
"US1MECM0018","2010-07-11",,,117.00,0.00,0.00
"US1MECM0018","2010-07-12",,,13.00,0.00,0.00
"US1MECM0018","2010-07-13",,,0.00,0.00,0.00
"US1MECM0018","2010-07-14",,,185.00,0.00,0.00
"US1MECM0018","2010-07-15",,,20.00,0.00,0.00
"US1MECM0018","2010-07-16",,,0.00,0.00,0.00
"US1MECM0018","2010-07-17",,,0.00,0.00,0.00
"US1MECM0018","2010-07-18",,,0.00,0.00,0.00
"US1MECM0018","2010-07-19",,,0.00,0.00,0.00
"US1MECM0018","2010-07-20",,,3.00,0.00,0.00
"US1MECM0018","2010-07-21",,,0.00,0.00,0.00
"US1MECM0018","2010-07-22",,,353.00,0.00,0.00
"US1MECM0018","2010-07-23",,,0.00,0.00,0.00
"US1MECM0018","2010-07-24",,,0.00,0.00,0.00
"US1MECM0018","2010-07-25",,,226.00,0.00,0.00
"US1MECM0018","2010-07-26",,,3.00,0.00,0.00
"US1MECM0018","2010-07-27",,,0.00,0.00,0.00
"US1MECM0018","2010-07-28",,,0.00,0.00,0.00
"US1MECM0018","2010-07-29",,,8.00,0.00,0.00
"US1MECM0018","2010-07-30",,,0.00,0.00,0.00
"US1MECM0018","2010-07-31",,,0.00,0.00,0.00
"US1MECM0018","2010-08-01",,,0.00,0.00,0.00
"US1MECM0018","2010-08-02",,,0.00,0.00,0.00
"US1MECM0018","2010-08-03",,,3.00,0.00,0.00
"US1MECM0018","2010-08-04",,,0.00,0.00,0.00
"US1MECM0018","2010-08-05",,,0.00,0.00,0.00
"US1MECM0018","2010-08-06",,,15.00,0.00,0.00
"US1MECM0018","2010-08-07",,,0.00,0.00,0.00
"US1MECM0018","2010-08-08",,,0.00,0.00,0.00
"US1MECM0018","2010-08-09",,,0.00,0.00,0.00
"US1MECM0018","2010-08-10",,,0.00,0.00,0.00
"US1MECM0018","2010-08-11",,,0.00,0.00,0.00
"US1MECM0018","2010-08-12",,,0.00,0.00,0.00
"US1MECM0018","2010-08-13",,,0.00,0.00,0.00
"US1MECM0018","2010-08-14",,,0.00,0.00,0.00
"US1MECM0018","2010-08-15",,,0.00,0.00,0.00
"US1MECM0018","2010-08-16",,,51.00,0.00,0.00
"US1MECM0018","2010-08-17",,,20.00,0.00,0.00
"US1MECM0018","2010-08-18",,,0.00,0.00,0.00
"US1MECM0018","2010-08-19",,,0.00,0.00,0.00
"US1MECM0018","2010-08-20",,,0.00,0.00,0.00
"US1MECM0018","2010-08-21",,,0.00,0.00,0.00
"US1MECM0018","2010-08-22",,,0.00,0.00,0.00
"US1MECM0018","2010-08-23",,,10.00,0.00,0.00
"US1MECM0018","2010-08-24",,,18.00,0.00,0.00
"US1MECM0018","2010-08-25",,,20.00,0.00,0.00
"US1MECM0018","2010-08-26",,,470.00,0.00,0.00
"US1MECM0018","2010-08-27",,,0.00,0.00,0.00
"US1MECM0018","2010-08-28",,,0.00,0.00,0.00
"US1MECM0018","2010-08-29",,,0.00,0.00,0.00
"US1MECM0018","2010-08-30",,,0.00,0.00,0.00
"US1MECM0018","2010-08-31",,,0.00,0.00,0.00
"US1MECM0018","2010-09-01",,,0.00,0.00,0.00
"US1MECM0018","2010-09-02",,,0.00,0.00,0.00
"US1MECM0018","2010-09-03",,,0.00,0.00,0.00
"US1MECM0018","2010-09-04",,,315.00,0.00,0.00
"US1MECM0018","2010-09-05",,,0.00,0.00,0.00
"US1MECM0018","2010-09-06",,,0.00,0.00,0.00
"US1MECM0018","2010-09-07",,,5.00,0.00,0.00
"US1MECM0018","2010-09-08",,,18.00,0.00,0.00
"US1MECM0018","2010-09-09",,,0.00,0.00,0.00
"US1MECM0018","2010-09-10",,,3.00,0.00,0.00
"US1MECM0018","2010-09-11",,,0.00,0.00,0.00
"US1MECM0018","2010-09-12",,,0.00,0.00,0.00
"US1MECM0018","2010-09-13",,,0.00,0.00,0.00
"US1MECM0018","2010-09-14",,,18.00,0.00,0.00
"US1MECM0018","2010-09-15",,,8.00,0.00,0.00
"US1MECM0018","2010-09-16",,,0.00,0.00,0.00
"US1MECM0018","2010-09-17",,,102.00,0.00,0.00
"US1MECM0018","2010-09-18",,,0.00,0.00,0.00
"US1MECM0018","2010-09-19",,,0.00,0.00,0.00
"US1MECM0018","2010-09-20",,,0.00,0.00,0.00
"US1MECM0018","2010-09-21",,,0.00,0.00,0.00
"US1MECM0018","2010-09-22",,,0.00,0.00,0.00
"US1MECM0018","2010-09-23",,,0.00,0.00,0.00
"US1MECM0018","2010-09-24",,,64.00,0.00,0.00
"US1MECM0018","2010-09-25",,,3.00,0.00,0.00
"US1MECM0018","2010-09-26",,,0.00,0.00,0.00
"US1MECM0018","2010-09-27",,,3.00,0.00,0.00
"US1MECM0018","2010-09-28",,,41.00,0.00,0.00
"US1MECM0018","2010-09-29",,,53.00,0.00,0.00
"US1MECM0018","2010-09-30",,,0.00,0.00,0.00
"US1MECM0018","2010-10-01",,,10.00,0.00,0.00
"US1MECM0018","2010-10-02",,,224.00,0.00,0.00
"US1MECM0018","2010-10-03",,,0.00,0.00,0.00
"US1MECM0018","2010-10-04",,,3.00,0.00,0.00
"US1MECM0018","2010-10-05",,,0.00,0.00,0.00
"US1MECM0018","2010-10-06",,,0.00,0.00,0.00
"US1MECM0018","2010-10-07",,,371.00,0.00,0.00
"US1MECM0018","2010-10-08",,,3.00,0.00,0.00
"US1MECM0018","2010-10-09",,,0.00,0.00,0.00
"US1MECM0018","2010-10-10",,,0.00,0.00,0.00
"US1MECM0018","2010-10-11",,,0.00,0.00,0.00
"US1MECM0018","2010-10-12",,,0.00,0.00,0.00
"US1MECM0018","2010-10-13",,,0.00,0.00,0.00
"US1MECM0018","2010-10-14",,,0.00,0.00,0.00
"US1MECM0018","2010-10-15",,,660.00,0.00,0.00
"US1MECM0018","2010-10-16",,,262.00,0.00,0.00
"US1MECM0018","2010-10-17",,,0.00,0.00,0.00
"US1MECM0018","2010-10-18",,,0.00,0.00,0.00
"US1MECM0018","2010-10-19",,,0.00,0.00,0.00
"US1MECM0018","2010-10-20",,,0.00,0.00,0.00
"US1MECM0018","2010-10-21",,,0.00,0.00,0.00
"US1MECM0018","2010-10-22",,,25.00,0.00,0.00
"US1MECM0018","2010-10-23",,,0.00,0.00,0.00
"US1MECM0018","2010-10-24",,,0.00,0.00,0.00
"US1MECM0018","2010-10-25",,,10.00,0.00,0.00
"US1MECM0018","2010-10-26",,,84.00,0.00,0.00
"US1MECM0018","2010-10-27",,,69.00,0.00,0.00
"US1MECM0018","2010-10-28",,,175.00,0.00,0.00
"US1MECM0018","2010-10-29",,,0.00,0.00,0.00
"US1MECM0018","2010-10-30",,,0.00,0.00,0.00
"US1MECM0018","2010-10-31",,,3.00,0.00,0.00
"US1MECM0018","2010-11-01",,,0.00,0.00,0.00
"US1MECM0018","2010-11-02",,,0.00,0.00,0.00
"US1MECM0018","2010-11-03",,,0.00,0.00,0.00
"US1MECM0018","2010-11-04",,,0.00,0.00,0.00
"US1MECM0018","2010-11-05",,,422.00,0.00,0.00
"US1MECM0018","2010-11-06",,,36.00,0.00,0.00
"US1MECM0018","2010-11-07",,,0.00,0.00,0.00
"US1MECM0018","2010-11-08",,,234.00,0.00,0.00
"US1MECM0018","2010-11-09",,,53.00,0.00,0.00
"US1MECM0018","2010-11-10",,,51.00,0.00,0.00
"US1MECM0018","2010-11-11",,,0.00,0.00,0.00
"US1MECM0018","2010-11-12",,,0.00,0.00,0.00
"US1MECM0018","2010-11-13",,,0.00,0.00,0.00
"US1MECM0018","2010-11-14",,,0.00,0.00,0.00
"US1MECM0018","2010-11-15",,,0.00,0.00,0.00
"US1MECM0018","2010-11-16",,,0.00,0.00,0.00
"US1MECM0018","2010-11-17",,,226.00,0.00,0.00
"US1MECM0018","2010-11-18",,,203.00,0.00,0.00
"US1MECM0018","2010-11-19",,,0.00,0.00,0.00
"US1MECM0018","2010-11-20",,,0.00,0.00,0.00
"US1MECM0018","2010-11-21",,,0.00,0.00,0.00
"US1MECM0018","2010-11-22",,,0.00,0.00,0.00
"US1MECM0018","2010-11-23",,,36.00,0.00,0.00
"US1MECM0018","2010-11-24",,,0.00,0.00,0.00
"US1MECM0018","2010-11-25",,,0.00,0.00,0.00
"US1MECM0018","2010-11-26",,,28.00,5.00,0.00
"US1MECM0018","2010-11-27",,,36.00,0.00,0.00
"US1MECM0018","2010-11-28",,,0.00,0.00,0.00
"US1MECM0018","2010-11-29",,,0.00,0.00,0.00
"US1MECM0018","2010-11-30",,,0.00,0.00,0.00
"US1MECM0018","2010-12-01",,,8.00,0.00,0.00
"US1MECM0018","2010-12-02",,,292.00,0.00,0.00
"US1MECM0018","2010-12-03",,,0.00,0.00,0.00
"US1MECM0018","2010-12-04",,,30.00,13.00,13.00
"US1MECM0018","2010-12-05",,,0.00,0.00,0.00
"US1MECM0018","2010-12-06",,,0.00,0.00,0.00
"US1MECM0018","2010-12-07",,,0.00,0.00,0.00
"US1MECM0018","2010-12-08",,,0.00,0.00,0.00
"US1MECM0018","2010-12-09",,,0.00,0.00,0.00
"US1MECM0018","2010-12-10",,,0.00,0.00,0.00
"US1MECM0018","2010-12-11",,,3.00,3.00,0.00
"US1MECM0018","2010-12-12",,,0.00,0.00,0.00
"US1MECM0018","2010-12-13",,,531.00,0.00,0.00
"US1MECM0018","2010-12-14",,,99.00,0.00,0.00
"US1MECM0018","2010-12-15",,,3.00,0.00,0.00
"US1MECM0018","2010-12-16",,,0.00,0.00,0.00
"US1MECM0018","2010-12-17",,,0.00,0.00,0.00
"US1MECM0018","2010-12-18",,,0.00,0.00,0.00
"US1MECM0018","2010-12-19",,,0.00,0.00,0.00
"US1MECM0018","2010-12-20",,,0.00,0.00,0.00
"US1MECM0018","2010-12-21",,,38.00,76.00,76.00
"US1MECM0018","2010-12-22",,,3.00,3.00,0.00
"US1MECM0018","2010-12-23",,,51.00,71.00,76.00
"US1MECM0018","2010-12-24",,,3.00,8.00,51.00
"US1MECM0018","2010-12-25",,,0.00,0.00,25.00
"US1MECM0018","2010-12-26",,,0.00,0.00,25.00
"US1MECM0018","2010-12-27",,,135.00,203.00,229.00
"US1MECM0018","2010-12-28",,,23.00,25.00,152.00
"US1MECM0018","2010-12-29",,,0.00,0.00,127.00
"US1MECM0018","2010-12-30",,,0.00,0.00,127.00
"US1MECM0018","2010-12-31",,,0.00,0.00,102.00
"US1MECM0018","2011-01-01",,,0.00,0.00,102.00
"US1MECM0018","2011-01-02",,,0.00,0.00,51.00
"US1MECM0018","2011-01-03",,,10.00,0.00,25.00
"US1MECM0018","2011-01-04",,,0.00,0.00,25.00
"US1MECM0018","2011-01-05",,,0.00,0.00,25.00
"US1MECM0018","2011-01-06",,,0.00,0.00,25.00
"US1MECM0018","2011-01-07",,,0.00,0.00,25.00
"US1MECM0018","2011-01-08",,,0.00,0.00,25.00
"US1MECM0018","2011-01-09",,,10.00,25.00,51.00
"US1MECM0018","2011-01-10",,,0.00,0.00,25.00
"US1MECM0018","2011-01-11",,,0.00,0.00,25.00
"US1MECM0018","2011-01-12",,,13.00,20.00,51.00
"US1MECM0018","2011-01-13",,,191.00,292.00,356.00
"US1MECM0018","2011-01-14",,,0.00,0.00,305.00
"US1MECM0018","2011-01-15",,,0.00,0.00,279.00
"US1MECM0018","2011-01-16",,,0.00,0.00,254.00
"US1MECM0018","2011-01-17",,,0.00,0.00,254.00
"US1MECM0018","2011-01-18",,,0.00,0.00,254.00